STAR ONE C4 (40733 NORAD) Tracking and Keplerian Element Data

This shows tracking and keplerian element data for the satellite.

Feedback or suggestion? Click here.




ElementValue
Catalog40733
NameSTAR ONE C4
Epoch Orbit1352
Epoch Day81.86087019
Epoch Year2019
RAAN340.5001
Inclination0.0435
Eccentricity0.0003118
Argument of Perigee32.5297
Mean Anonmoly46.923
Mean Motion1.00270773
Decay Rate-2.89E-06
L11 40733U 15034B 19081.86087019 -.00000289 00000-0 00000-0 0 9998
L22 40733 0.0435 340.5001 0003118 32.5297 46.9230 1.00270773 13527

Live tracking and technical data element details for STAR ONE C4 (NORAD 40733). STAR ONE C4 can be tracked NOW for your location showing map with azimuth and elevation plus other details from your city location.

Track the satellite on the map from your city or location and see movement details for azimuth, elevation, latitude, longitude, range, height, and movement on the map or in text.







IsCatalogInMostPopularTable: catalog: 40733, numindb: 268
Update: records affected: 1



GetName: 40733 STAR ONE C4

Hit Count: updated at: Sun, 24 Mar 2019 08:49:48 GMT